Airfield :
LOGIN :

Register | Disclaimer

   EN    FR    IT 

 










Legend :    VFR   Marginal VFR   IFR   Intensive IFR   Very Intensive IFR
Visi :
Ceiling :
>= 8 km
>= 3000ft
5 to 8 km
1000 to 3000 ft
1500m to 5 km
500 to 1000 ft
800 to 1500m
200 to 500 ft
< 800m
< 200 ft
Symbols :   Thunderstorms  Fog  Heavy snow  Heavy precipitations  Wind > 20 kt
SIGMETs :     Misc.  Thunderstorms  Icing  Turbulence  Mountain Waves  Volcanic Ashes






- Airport Elevation : 38 ft
- IATA code : ADX


EGQL - RAF Leuchars

CURRENT METAR :
  • 200150Z 25003KT CAVOK 01/M02 Q1027 RMK BLU

EXPIRED METARs :
  • 200050Z 04002KT 9999 SKC 02/M02 Q1027 RMK BLU
  • 192350Z 34004KT 9999 SKC 04/M01 Q1026 RMK BLU
  • 192250Z 27003KT 9999 SKC 02/M02 Q1026 RMK BLU
  • 192150Z 32002KT 9999 SKC 05/M01 Q1025 RMK BLU

TAF TAF EGQL
Valid from the 20 at 03:00 until the 20 at 12:00 UTC


200127Z 2003/2012 VRB03KT CAVOK



MET'MAP, your aeronautical weather chart ! - Copyright ORBIFLY December 2007 - Disclaimer

ORBIFLY MET'MAP TEAM :

Programming & Development : Alexandra Zaïnal
Original concept : Baudouin d'Aumeries
Technical & hardware support : Manuel Goepfert
Assistance : Marc-Olivier Méhu




SOURCES & CREDITS :

   NOAA